FW6883 Weather Reports


Display with metric or nautical units.
time (UTC)temp
F
wind
direction
speed
MPH
gust
MPH
rain 1hr
in
rain 24hr
in
rain mn
in
humidity
%
barometer
mb
20260509234527 68 76 4.0 11.0 0.00 0.00 0.00 34 1003.2
20260509233017 69 94 4.0 10.0 0.00 0.00 0.00 31 1003.4
20260509231513 68 100 4.0 9.0 0.00 0.00 0.00 30 1003.2
20260509230008 68 105 4.0 8.0 0.00 0.00 0.00 29 1003.2
20260509224505 68 103 5.0 12.0 0.00 0.00 0.00 29 1003.6
20260509223105 68 107 5.0 12.0 0.00 0.00 0.00 31 1003.6
20260509221553 68 79 4.0 12.0 0.00 0.00 0.00 27 1003.7
20260509220048 68 104 3.0 10.0 0.00 0.00 0.00 28 1003.8
20260509214542 68 61 5.0 10.0 0.00 0.00 0.00 31 1003.9
20260509213039 69 90 3.0 10.0 0.00 0.00 0.00 31 1004.2
20260509211532 68 98 6.0 10.0 0.00 0.00 0.00 32 1004.0
20260509210031 68 131 4.0 13.0 0.00 0.00 0.00 32 1004.1
20260509204523 69 94 3.0 8.0 0.00 0.00 0.00 32 1004.4
20260509203013 69 95 4.0 9.0 0.00 0.00 0.00 29 1004.2
20260509201505 69 70 3.0 9.0 0.00 0.00 0.00 30 1004.3
20260509200109 70 106 4.0 9.0 0.00 0.00 0.00 26 1004.4
20260509194554 70 67 3.0 12.0 0.00 0.00 0.00 32 1004.2
20260509193048 69 79 3.0 11.0 0.00 0.00 0.00 32 1004.5
20260509191543 69 60 3.0 8.0 0.00 0.00 0.00 32 1004.3
20260509190037 70 65 2.0 7.0 0.00 0.00 0.00 29 1004.6
20260509184542 71 81 2.0 5.0 0.00 0.00 0.00 30 1004.7
20260509183026 73 70 1.0 4.0 0.00 0.00 0.00 23 1004.7
20260509181518 71 75 0.0 4.0 0.00 0.00 0.00 28 1004.8
20260509180015 72 58 1.0 6.0 0.00 0.00 0.00 22 1004.9
20260509174508 72 46 3.0 10.0 0.00 0.00 0.00 16 1004.9
20260509173001 72 33 3.0 8.0 0.00 0.00 0.00 15 1005.1
20260509170049 72 326 0.0 4.0 0.00 0.00 0.00 18 1005.0
20260509164543 71 58 1.0 4.0 0.00 0.00 0.00 16 1004.9
20260509163039 71 49 1.0 5.0 0.00 0.00 0.00 14 1005.0
20260509161533 70 324 1.0 6.0 0.00 0.00 0.00 14 1004.9
20260509160032 71 290 1.0 4.0 0.00 0.00 0.00 18 1004.8
20260509154521 71 324 1.0 3.0 0.00 0.00 0.00 16 1005.0
20260509153029 71 26 0.0 3.0 0.00 0.00 0.00 15 1004.9
20260509151507 72 96 0.0 2.0 0.00 0.00 0.00 17 1005.2
20260509150001 71 98 0.0 0.0 0.00 0.00 0.00 15 1005.5
20260509144608 69 98 0.0 1.0 0.00 0.00 0.00 13 1005.2
20260509143115 67 123 0.0 0.0 0.00 0.00 0.00 14 1005.3
20260509141544 65 124 0.0 0.0 0.00 0.00 0.00 13 1005.2
20260509140038 66 124 0.0 1.0 0.00 0.00 0.00 14 1005.1
20260509134556 65 127 0.0 1.0 0.00 0.00 0.00 13 1005.1
20260509133031 65 127 0.0 2.0 0.00 0.00 0.00 12 1005.0
20260509131521 65 131 0.0 1.0 0.00 0.00 0.00 12 1005.0
20260509130016 65 143 1.0 3.0 0.00 0.00 0.00 10 1004.9
20260509124509 63 108 0.0 2.0 0.00 0.00 0.00 12 1005.0
20260509123003 62 126 0.0 0.0 0.00 0.00 0.00 11 1004.9
20260509121613 62 127 0.0 3.0 0.00 0.00 0.00 13 1004.9
20260509120107 63 131 1.0 3.0 0.00 0.00 0.00 11 1004.9
20260509114550 63 114 1.0 5.0 0.00 0.00 0.00 11 1004.8
20260509113042 63 127 1.0 2.0 0.00 0.00 0.00 8 1005.0
20260509111545 62 128 1.0 2.0 0.00 0.00 0.00 8 1004.9
20260509110033 62 123 1.0 2.0 0.00 0.00 0.00 12 1005.0
20260509104536 63 131 0.0 2.0 0.00 0.00 0.00 11 1005.0
20260509103017 63 120 1.0 2.0 0.00 0.00 0.00 12 1005.0
20260509101512 63 119 1.0 2.0 0.00 0.00 0.00 9 1005.2
20260509100006 62 138 1.0 2.0 0.00 0.00 0.00 10 1005.3
20260509094605 62 131 1.0 2.0 0.00 0.00 0.00 9 1005.3
20260509093105 61 120 1.0 2.0 0.00 0.00 0.00 8 1005.4
20260509091552 61 140 1.0 3.0 0.00 0.00 0.00 9 1005.5
20260509090057 61 113 0.0 3.0 0.00 0.00 0.00 12 1005.8
20260509084546 61 139 1.0 3.0 0.00 0.00 0.00 10 1005.8
20260509083041 60 136 1.0 3.0 0.00 0.00 0.00 10 1006.2
20260509081541 59 108 0.0 3.0 0.00 0.00 0.00 11 1006.3
20260509080036 59 118 1.0 3.0 0.00 0.00 0.00 12 1006.3
20260509074541 60 106 1.0 3.0 0.00 0.00 0.00 11 1006.6
20260509073029 60 118 1.0 3.0 0.00 0.00 0.00 12 1006.7
20260509071525 59 126 1.0 3.0 0.00 0.00 0.00 13 1006.6
20260509070019 59 136 2.0 4.0 0.00 0.00 0.00 11 1006.6
20260509064515 59 129 1.0 3.0 0.00 0.00 0.00 12 1006.9
20260509063022 60 105 1.0 3.0 0.00 0.00 0.00 11 1006.9
20260509061611 60 127 1.0 3.0 0.00 0.00 0.00 12 1006.9
20260509060010 60 127 1.0 2.0 0.00 0.00 0.00 12 1007.1
20260509054505 60 101 1.0 3.0 0.00 0.00 0.00 12 1007.0
20260509053005 60 106 0.0 3.0 0.00 0.00 0.00 12 1006.8
20260509051501 60 115 0.0 3.0 0.00 0.00 0.00 13 1007.1
20260509050100 60 107 1.0 3.0 0.00 0.00 0.00 12 1007.0
20260509044558 60 124 1.0 3.0 0.00 0.00 0.00 15 1006.9
20260509043100 60 117 1.0 3.0 0.00 0.00 0.00 16 1006.8
20260509041616 59 124 1.0 3.0 0.00 0.00 0.00 20 1006.7
20260509040050 59 130 1.0 4.0 0.00 0.00 0.00 22 1006.3
20260509034547 59 117 0.0 3.0 0.00 0.00 0.00 25 1005.9
20260509033046 59 94 0.0 2.0 0.00 0.00 0.00 32 1006.0
20260509031543 59 92 0.0 2.0 0.00 0.00 0.00 58 1005.7
20260509030045 60 92 1.0 3.0 0.00 0.00 0.00 53 1005.6
20260509024540 60 92 0.0 3.0 0.00 0.00 0.00 45 1005.2
20260509023046 59 105 1.0 4.0 0.00 0.00 0.00 71 1005.3
20260509021537 59 116 1.0 6.0 0.00 0.00 0.00 71 1005.1
20260509020044 60 108 3.0 7.0 0.00 0.00 0.00 69 1005.4
20260509014532 60 93 4.0 10.0 0.00 0.00 0.00 69 1005.1
20260509013037 61 105 4.0 10.0 0.00 0.00 0.00 66 1005.2
20260509011524 63 94 3.0 9.0 0.00 0.00 0.00 63 1005.5
20260509010022 64 82 4.0 10.0 0.00 0.00 0.00 58 1005.6
20260509004519 65 91 5.0 11.0 0.00 0.00 0.00 54 1005.9
20260509003014 65 88 4.0 12.0 0.00 0.00 0.00 49 1005.9
20260509001510 65 86 6.0 14.0 0.00 0.00 0.00 49 1006.1
20260509000007 66 95 5.0 12.0 0.00 0.00 0.00 42 1006.4